Norman Wells, Northwest Territories

3:39 PM MST on January 19, 2018 (GMT -0700)
Norman Wells

Weather History for CYVQ - October, 2013

Change the Weather History Date:

Wednesday, October 16, 2013

  Actual Average Record
Temperature  
Mean Temperature 32 °F -  
Max Temperature 41 °F 15 °F 41 °F (2013)
Min Temperature 22 °F 3 °F 0 °F (1999)
Degree Days  
Heating Degree Days 34    
Moisture  
Dew Point 33 °F    
Average Humidity 93    
Maximum Humidity 100    
Minimum Humidity 86    
Precipitation  
Precipitation 0.03 in 0.03 in - ()
Sea Level Pressure  
Sea Level Pressure 30.03 in    
Wind  
Wind Speed 3 mph ()    
Max Wind Speed 8 mph    
Max Gust Speed -    
Visibility 19.8 miles    
Events Rain    
Averages and records for this station are not official NWS values.
T = Trace of Precipitation, MM = Missing Value Source: Averaged Metar Reports

Daily Weather History Graph

Daily Weather History Graph

Search for Another Location

Airport or City:

Trip Planner

Search our weather history database for the weather conditions in past years. The results will help you decide how hot, cold, wet, or windy it might be!

Date:

Astronomy

Oct. 16, 2013 Rise Set
Actual Time 9:25 AM MDT 6:58 PM MDT
Civil Twilight 8:34 AM MDT 7:49 PM MDT
Nautical Twilight 7:36 AM MDT 8:46 PM MDT
Astronomical Twilight 6:37 AM MDT 9:45 PM MDT
Moon 6:14 PM MDT (10/16) 6:15 AM MDT (10/16)
Length of Visible Light 11h 15m
Length of Day
9h 32m
Waxing Gibbous, 94% of the Moon is Illuminated
Oct 16
Waxing Gibbous
Oct 18
Full
Oct 26
Last Quarter
Nov 3
New
Nov 9
First Quarter

Hourly Weather History & Observations

Time (MDT) Temp. Windchill Dew Point Humidity Pressure Visibility Wind Dir Wind Speed Gust Speed Precip Events Conditions
12:00 AM 33.8 °F - 30.2 °F 87% 30.01 in 30.0 mi NE 2.3 mph - N/A   Mostly Cloudy
1:00 AM 28.4 °F - 26.6 °F 93% 29.99 in 30.0 mi NE 2.3 mph - N/A   Partly Cloudy
2:00 AM 30.2 °F 24.3 °F 26.6 °F 86% 29.99 in 30.0 mi WNW 5.8 mph - N/A   Partly Cloudy
3:00 AM 26.6 °F 22.6 °F 24.8 °F 93% 29.99 in 30.0 mi ENE 3.5 mph - N/A   Partly Cloudy
4:00 AM 30.2 °F 25.4 °F 28.4 °F 93% 29.99 in 30.0 mi East 4.6 mph - N/A   Partly Cloudy
5:00 AM 26.6 °F - 26.6 °F 100% 29.97 in 30.0 mi NE 2.3 mph - N/A   Scattered Clouds
6:00 AM 26 °F - 24 °F 91% 29.97 in 28 mi ENE 2.3 mph - -   Partly Cloudy
6:00 AM 26.6 °F - 24.8 °F 93% 29.97 in 30.0 mi East 2.3 mph - N/A   Mostly Cloudy
7:00 AM 23.0 °F - 21.2 °F 93% 29.96 in 30.0 mi ESE 2.3 mph - N/A   Mostly Cloudy
8:00 AM 26.6 °F - 24.8 °F 93% 29.97 in 30.0 mi ENE 2.3 mph - N/A   Mostly Cloudy
9:00 AM 30.2 °F 26.7 °F 26.6 °F 86% 29.98 in 30.0 mi NE 3.5 mph - N/A   Mostly Cloudy
10:00 AM 32.0 °F 28.7 °F 30.2 °F 93% 30.00 in 30.0 mi West 3.5 mph - N/A   Mostly Cloudy
10:25 AM 33.8 °F 29.6 °F 30.2 °F 87% 30.00 in 30.0 mi WSW 4.6 mph - N/A Rain Light Rain
11:00 AM 33.8 °F - 32.0 °F 93% 30.00 in 30.0 mi ENE 2.3 mph - N/A Rain Light Rain
12:00 PM 35 °F - 33 °F 89% 30.00 in 19 mi NW 3.5 mph - - Rain Light Rain
12:00 PM 35.6 °F 31.7 °F 33.8 °F 93% 30.00 in 20.0 mi NW 4.6 mph - N/A Rain Light Rain
1:00 PM 35.6 °F - 33.8 °F 93% 30.01 in 20.0 mi Calm Calm - N/A Rain Light Rain
2:00 PM 39.2 °F 37.0 °F 35.6 °F 87% 30.02 in 30.0 mi North 3.5 mph - N/A Rain Light Rain
3:00 PM 39.2 °F 35.9 °F 35.6 °F 87% 30.04 in 20.0 mi South 4.6 mph - N/A Rain Light Rain
4:00 PM 39.2 °F - 37.4 °F 93% 30.06 in 20.0 mi Calm Calm - N/A   Overcast
5:00 PM 39.2 °F 37.0 °F 39.2 °F 100% 30.07 in 20.0 mi NW 3.5 mph - N/A Rain Light Rain
6:00 PM 41 °F - 40 °F 92% 30.09 in 19 mi WNW 5.8 mph - - Rain Light Rain
6:00 PM 41.0 °F 37.1 °F 39.2 °F 93% 30.09 in 20.0 mi WNW 5.8 mph - N/A Rain Light Rain
6:25 PM 39.2 °F 34.2 °F 39.2 °F 100% 30.09 in 20.0 mi West 6.9 mph - N/A Rain Light Rain
7:00 PM 39.2 °F 34.2 °F 39.2 °F 100% 30.09 in 20.0 mi West 6.9 mph - N/A Rain Light Rain
7:49 PM 41.0 °F 35.8 °F 39.2 °F 93% 30.10 in 30.0 mi WSW 8.1 mph - N/A Rain Light Rain
8:00 PM 39.2 °F 35.9 °F 39.2 °F 100% 30.11 in 30.0 mi North 4.6 mph - N/A Rain Light Rain
9:00 PM 41.0 °F 39.0 °F 39.2 °F 93% 30.10 in 30.0 mi West 3.5 mph - N/A Rain Light Rain
9:38 PM 39.2 °F - 39.2 °F 100% 30.12 in 30.0 mi West 2.3 mph - N/A   Mostly Cloudy
10:00 PM 37.4 °F - 37.4 °F 100% 30.11 in 30.0 mi Calm Calm - N/A   Mostly Cloudy
11:00 PM 37.4 °F 34.9 °F 37.4 °F 100% 30.13 in 30.0 mi East 3.5 mph - N/A   Mostly Cloudy